Weather in Yagodny

Russia / Khabarovsk Krai     51°04′07″N   138°25′55″E
temp.,
°C
wind,
m/s
gust,
m/s
humid.,
%
clouds,
%
prec.,
mm/h
press.,
hPa
HPBL,
m
21 january, thu
thu2101:00−21ssw3784100 0.0 1018273
04:00−20ssw2395100 0.1 1014120
07:00−19ssw1197100 0.2 101327
10:00−18wsw1197100 0.4 1013104
13:00−17wsw4790100 0.3 1012826
16:00−18wsw5994100 0.6 1013855
19:00−20sw4897100 0.3 1016760
22:00−21sw2699100 0.6 1017279
22 january, fri
fri2201:00−21sw2898100 0.1 1018398
04:00−22sw2499100 0.2 1019165
07:00−23sw2499100 0.1 1019178
10:00−23sw3796100 0.3 1020502
13:00−22sw3791100 0.1 1020648
16:00−22sw3791100 0.1 1020624
19:00−26ssw2498100 0.0 1022116
22:00−27ssw3594100 0.1 1023128
23 january, sat
sat2301:00−27ssw3494100 0.0 102480
04:00−28ssw339599 0.0 102471
07:00−28ssw339599 0.0 102573
10:00−27sw369497 0.0 1026297
13:00−22sw498674 0.0 1025566
16:00−21sw378646 0.0 1024480
19:00−25ssw349351 0.0 102692
22:00−25ssw349037 0.0 102586
24 january, sun
sun2401:00−22ssw348889 0.0 1025105
04:00−21ssw359295 0.0 1024223
07:00−21ssw2398100 0.1 102485
10:00−20sw2595100 0.2 1026267
13:00−16wsw2588100 0.0 1026591
16:00−17wsw2591100 0.1 1027546
19:00−20ssw2299100 0.1 102937
22:00−21ssw1297100 0.1 103023
25 january, mon
mon2501:00−21s1298100 0.0 103220
04:00−22ssw1199100 0.1 103320
07:00−24sse1199100 0.1 103420
10:00−22s0195100 0.1 103642
13:00−17w118579 0.0 1036352
16:00−18nw118684 0.0 1036306
19:00−23ese119238 0.0 103820
22:00−24ene118565 0.0 103821